STARLINK-36750, 67695

Orbit data source: Space-Track

STARLINK-36750, 67695 is a payload satellite owned by SpaceX/Seattle (US) in SSO that was launched on Sat, 07 Feb 2026 UTC via an FALCON 9 launch vehicle from the Air Force Western Test Range (AFWTR). Payload-class satellites include a variety of spacecraft equipped with specific instruments for various scientific and technological missions. These include communications satellites like Starlink; space stations such as the ISS; scientific satellites like the Hubble; Earth observation satellites from companies like Planet Labs, Umbra, and HawkEye 360; GPS; miniature CubeSats for education and research; and military/defense satellites.

Loading next visibility...
Identifier
67695, 2026-025C
Orbit
SSO
Country
Flag of USUS
Related business
Manufacturer
SpaceX/Seattle
Mission
Operational spacecraft
Bus & Motor
STARLINK V2MO, Unknown motor
Mass
575 kg wet, ~530 kg dry
Launch date (UTC)
2026-02-07 (2 months ago)
Launch vehicle
FALCON 9
Launch site
Air Force Western Test Range (AFWTR)
Object type
Payload
Rocket body
Debris
Shape & HBR
Unknown shape, 17.7 m
Radar Cross Section
RCS unknown

Expand to show TLE details & history
Last TLE update: 15 hours ago

TLE from 15 hours ago
0 STARLINK-36750
1 67695U 26025C   26103.74606860  .00017462  00000-0  54170-3 0  9997
2 67695  97.2891 215.9184 0000470 134.5846 225.5435 15.33460806 11388
Epoch: 2026-04-13T17:54Z
TLE epoch observation values (Epoch: 2026-04-13T17:54:20.327Z)
Latitude
-0.00001°
Longitude
105.40145°
Altitude
468.833 km
Speed
7.632 km/s
True Right ascension
14h 23m 40s
True Declination
0° 00' 00"
Sunlit
Object was in full shadow at epoch
Visualization orbit readout
Latitude
Unknown
Longitude
Unknown
Altitude
Unknown
Speed
Unknown
Apparent Right ascension
Unknown
Apparent Declination
Unknown
Sunlit
N/A
Visualization observer readout
Local Sidereal Time
15:10:44
Azimuth
Unknown
Elevation
Unknown
Doppler factor
Unknown
Orbital elements
Apogee altitude
462.761 km
Perigee altitude
462.118 km
Semi-major axis
6,840.576 km
Eccentricity
0.00005
Inclination
97.2891°
RAAN
215.9184°
Arg. of periapsis
134.5846°
True anomaly
225.53966°
Mean anomaly
225.5435°
Eccentric anomaly
225.54158°
Mean motion
3.83623 °/min
Orbital period
93.84 mins
BSTAR
0.0005417
Loading maneuver chart data...
Computing Atmospheric mass density...
Loading historical data...
Loading historical data...
Loading historical data...
Loading historical data...
Loading historical data...
Loading historical data...
Loading historical data...

Documentation

Showing up to 5 results
|